EHI
0 0 0 0 0 0 0 0 0 0 0 0 0 0 0 0 0 0 0 0 0 0 0 0 0 0 0 0 0 0 0 0 0 0 0 0 0 0 0 0 0 0 0 0 0 0 0 0 0
1 1 0 0 0 0 0 0 0 0 0 0 0 0 0 0 0 0 0 0 0 0 0 0 0 0 0 0 0 0 0 0 0 0 0 0 0 0 0 0 0 0 0 0 0 0 0 0 0
2 1 0 0 0 0 0 0 0 0 0 0 0 0 0 0 0 0 0 0 0 0 0 0 0 0 0 0 0 0 0 0 0 0 0 0 0 0 0 0 0 0 0 0 0 0 0 0 0
2 1 0 0 0 0 0 0 0 0 0 0 0 0 0 0 0 0 0 0 0 0 0 0 1 1 1 1 1 0 0 0 0 0 0 0 0 0 0 0 0 0 0 0 0 0 0 0 0
1 0 0 0 0 0 0 0 0 0 0 0 0 0 0 0 0 0 0 0 0 0 0 1 2 2 2 2 1 0 0 0 0 0 0 0 0 0 0 0 0 0 0 0 0 0 0 0 0
0 0 0 0 0 0 0 0 0 0 0 0 0 0 0 0 0 0 0 0 0 0 1 2 2 1 1 1 1 0 0 0 0 0 0 0 0 0 0 1 1 1 1 0 0 0 0 0 0
0 0 0 0 0 0 0 0 0 0 0 0 0 0 0 0 0 0 0 0 1 1 2 2 1 0 0 0 0 0 0 0 0 0 0 0 0 0 0 1 2 2 2 1 0 0 0 0 0
0 0 0 0 0 0 0 0 0 0 0 0 0 0 0 0 0 0 0 1 2 2 2 2 1 0 0 0 0 0 0 0 0 0 0 0 0 0 0 1 2 3 3 1 0 0 0 0 0
0 0 0 0 0 0 0 0 0 0 0 0 0 0 0 0 0 0 0 1 1 1 1 1 1 0 0 0 0 0 0 0 0 0 1 0 0 0 0 0 1 2 2 1 1 1 1 0 0
0 0 0 0 0 0 0 0 0 0 0 0 0 0 0 0 0 0 0 0 0 0 0 0 0 0 0 0 0 0 0 0 0 0 0 0 0 0 0 0 0 1 2 1 1 1 1 0 0
0 0 0 0 0 0 0 0 0 0 0 0 0 0 0 0 0 0 0 0 0 0 0 0 0 0 0 0 0 0 0 0 0 0 0 0 0 0 0 0 0 1 2 2 1 1 1 0 0
0 0 0 0 0 0 0 0 1 1 1 0 0 0 0 0 0 0 0 0 0 0 0 0 0 0 0 0 0 0 0 0 0 0 0 0 0 0 0 0 0 1 2 3 3 2 1 0 0
0 0 0 0 0 0 0 0 1 1 1 0 0 0 0 0 0 0 0 0 0 0 0 0 0 0 0 0 0 0 0 0 0 0 0 0 0 0 0 0 0 0 1 2 3 3 1 0 0
0 0 0 0 0 0 0 0 0 0 0 0 0 0 0 0 0 0 0 0 0 0 0 0 0 0 0 0 0 0 0 0 0 0 0 0 0 0 0 0 0 0 0 1 2 3 2 1 0
0 0 0 0 0 0 0 0 0 0 0 0 0 0 0 0 0 0 0 0 0 0 0 0 0 0 0 0 0 0 0 0 0 0 0 0 0 0 0 0 0 0 0 0 1 2 2 1 0
0 0 0 0 0 0 0 0 0 0 0 0 0 0 0 0 0 0 0 0 0 0 0 0 0 0 0 0 0 0 0 0 0 0 0 0 0 0 0 0 0 0 0 0 0 1 1 0 0
0 0 0 0 0 0 0 0 0 0 0 0 0 0 0 0 0 0 0 0 0 0 0 0 0 0 0 0 0 0 0 0 0 0 0 0 0 0 0 0 0 0 0 0 0 0 0 0 0
0 0 0 0 0 0 0 0 0 0 0 0 0 0 0 0 0 0 0 0 0 0 0 0 0 0 0 0 0 0 0 0 0 0 0 0 0 0 0 0 0 0 0 0 0 0 0 0 0
0 0 0 0 0 0 0 0 0 0 0 0 0 0 0 0 0 0 0 0 0 0 0 0 0 0 0 0 0 0 0 0 0 0 0 0 0 0 0 0 0 0 0 0 0 0 0 0 0
0 0 0 0 0 0 0 0 0 0 0 0 0 0 0 0 0 0 0 0 0 0 0 0 0 0 0 0 0 0 0 0 0 0 0 0 0 0 0 0 0 0 0 0 0 0 0 0 0
0 0 0 0 0 0 0 0 0 0 0 0 0 0 0 0 0 0 0 0 0 0 0 0 0 0 0 0 0 0 0 0 0 0 0 0 0 0 0 0 0 0 0 0 0 0 0 0 0
0 0 0 0 0 0 0 0 0 0 0 0 0 0 0 0 0 0 0 0 0 0 1 1 1 1 0 0 0 0 0 0 0 0 0 0 0 0 0 0 0 0 0 0 0 0 0 0 0
0 0 0 0 0 0 0 0 0 0 0 0 0 0 0 0 0 0 0 0 0 1 2 2 2 2 1 0 0 0 0 0 0 0 0 0 0 0 0 0 0 0 0 0 0 0 0 0 0
0 0 0 0 0 0 0 0 0 0 0 0 0 0 0 0 0 0 0 0 0 1 2 3 3 3 2 1 0 0 0 0 0 0 0 0 0 0 0 0 0 0 0 0 0 0 0 0 0
0 0 0 0 0 0 0 0 0 0 0 0 0 0 0 0 0 0 0 0 0 1 1 2 3 3 2 1 0 1 0 0 0 0 0 0 0 0 0 0 0 0 0 0 0 0 0 0 0
0 0 0 0 0 0 0 0 0 0 0 0 0 0 0 0 0 0 0 0 0 0 1 1 2 3 2 1 0 0 0 0 0 0 0 0 0 0 0 0 0 0 0 0 0 0 0 0 0
0 0 0 0 0 0 0 0 0 0 0 0 0 0 0 0 0 0 0 0 0 0 1 2 2 2 1 0 0 0 0 0 0 0 0 0 0 0 0 0 0 0 0 0 0 0 0 0 0
0 0 0 0 0 0 0 0 0 0 0 0 0 0 0 0 0 0 0 0 1 1 1 3 3 1 0 0 0 0 0 0 0 0 0 0 0 0 0 0 0 0 0 0 0 0 0 0 0
0 0 0 0 0 0 0 0 0 0 0 0 0 0 0 0 0 0 0 0 1 2 2 3 2 1 0 0 0 0 0 0 0 0 0 0 0 0 0 0 0 0 0 0 0 0 0 0 0
0 0 0 0 0 0 0 0 0 0 0 0 0 0 0 0 0 0 0 0 1 2 3 3 2 1 0 0 1 1 1 0 0 0 0 0 0 0 0 0 0 0 0 0 0 0 0 0 0
Wind_Speed
5 3 2 3 3 3 6 5 4 5 5 6 6 5 6 7 6 6 4 4 4 5 5 6 8 8 8 8 8 8 9 9 9 10 10 11 11 10 10 10 10 10 9 9 9 9 8 8 8
3 2 3 2 1 4 6 5 6 7 6 5 5 5 6 7 7 6 4 4 4 5 5 7 8 8 8 8 8 8 9 9 10 10 10 11 11 11 11 10 10 10 10 10 9 9 9 9 8
4 3 2 0 3 5 7 6 7 7 5 3 4 5 5 6 5 4 4 4 4 6 6 8 7 7 8 8 8 9 9 10 10 10 10 10 11 10 10 10 10 10 9 9 9 9 9 10 9
3 2 1 3 8 7 6 6 6 7 5 4 4 6 6 6 4 5 5 4 5 6 6 8 7 7 8 8 8 9 9 9 9 9 9 10 10 10 11 10 10 9 9 9 9 9 9 9 9
2 1 3 6 8 6 5 5 5 5 5 5 5 7 8 6 6 6 6 5 5 6 6 7 8 8 8 9 9 9 9 9 9 9 9 10 10 10 10 10 10 10 9 9 9 9 9 10 10
2 1 3 7 8 6 6 5 4 6 7 6 5 7 7 5 5 5 5 4 5 5 5 6 7 7 8 8 8 9 9 9 9 9 9 9 9 10 10 9 9 9 9 9 9 10 10 10 10
0 2 5 7 7 6 5 4 4 5 6 6 4 6 7 6 5 4 5 4 5 5 4 5 5 6 7 8 8 9 9 9 9 9 9 9 9 9 9 9 9 9 9 9 9 10 10 10 10
1 2 6 5 6 6 6 5 4 4 6 5 2 4 6 6 5 4 4 4 4 4 4 4 5 5 5 7 8 8 8 8 8 8 8 7 6 7 7 8 9 9 9 9 10 10 11 11 11
1 2 4 5 4 6 6 6 6 5 6 5 4 5 6 7 6 5 4 4 4 3 3 4 4 4 4 5 6 5 6 5 3 5 5 2 4 5 5 10 8 9 9 9 9 10 9 8 9
1 3 5 4 4 6 6 5 5 5 6 5 6 6 6 7 5 4 3 3 3 3 3 3 3 3 4 4 3 3 3 3 3 3 4 3 4 5 5 8 8 8 8 8 8 6 4 2 5
3 4 5 5 5 6 7 6 4 4 4 3 4 7 7 6 5 3 3 2 2 2 2 2 2 3 3 2 2 2 2 2 2 4 4 3 3 3 3 3 4 4 4 5 4 3 4 5 5
5 5 4 5 5 5 6 6 5 4 4 4 4 6 7 5 4 3 2 2 2 2 1 1 1 2 2 2 2 1 2 2 2 3 4 3 3 3 3 2 3 3 3 3 3 3 5 6 6
5 5 5 5 6 6 6 6 5 4 4 5 6 6 6 4 3 3 2 2 2 2 2 1 1 1 1 2 1 1 2 2 2 2 2 3 2 2 2 2 3 3 3 3 3 3 5 5 6
5 5 5 5 5 5 6 4 3 3 4 5 6 5 5 4 3 2 2 1 1 1 1 2 1 1 1 1 1 1 2 1 2 2 2 2 2 2 2 2 3 3 3 3 3 4 4 4 4
5 6 5 3 3 4 4 3 2 3 5 5 5 5 4 3 2 1 1 1 1 1 1 2 1 1 2 2 2 1 1 2 2 2 2 2 2 1 2 1 2 2 2 2 2 4 3 3 4
5 4 4 4 2 3 5 2 4 4 6 5 4 4 3 3 2 1 1 0 1 1 1 2 1 1 2 2 2 1 2 2 2 2 2 3 2 2 2 1 1 1 1 1 2 2 2 3 3
5 4 4 4 2 3 4 2 3 4 5 5 5 4 4 3 2 1 1 0 1 1 1 2 2 2 2 2 2 2 2 2 1 1 2 2 2 2 1 1 1 1 1 1 1 1 1 3 2
4 3 3 3 3 4 4 3 2 4 5 5 5 5 5 4 3 3 2 1 1 1 1 2 2 2 2 2 1 1 2 1 1 1 2 3 2 2 1 1 1 1 1 1 1 2 1 2 1
2 3 3 1 2 3 4 4 3 3 5 5 5 5 5 5 4 3 3 2 2 2 1 1 1 2 1 1 0 0 0 1 1 1 2 2 2 2 1 0 1 0 0 0 0 1 2 1 0
4 5 3 2 2 3 3 4 4 3 5 5 6 6 6 5 5 4 4 3 2 2 1 1 1 2 1 1 0 0 1 1 1 1 1 1 1 1 1 0 0 1 0 1 1 1 1 1 1
6 6 4 2 2 4 5 5 5 3 4 4 5 5 5 6 6 6 5 4 3 3 2 1 1 2 2 1 1 0 0 0 0 0 0 1 1 1 1 1 1 1 1 1 1 2 2 1 1
5 3 5 5 6 3 5 5 4 4 4 4 4 5 6 6 6 6 6 5 4 4 3 3 2 2 2 2 1 1 1 1 1 1 0 1 1 1 1 1 1 1 1 2 2 2 2 2 2
2 2 5 6 7 6 6 7 3 5 4 3 3 4 5 6 6 7 6 6 5 4 4 3 3 3 2 2 2 2 1 1 0 0 1 1 0 1 1 1 2 2 2 2 2 2 3 2 2
4 5 4 5 6 8 4 7 3 3 3 2 2 3 4 5 6 6 6 5 5 4 4 4 4 3 3 3 3 3 2 1 0 1 0 1 1 1 2 2 2 2 2 2 3 3 3 2 2
7 7 5 6 6 4 1 6 3 1 1 2 2 2 3 4 5 5 6 6 5 5 5 4 4 3 3 3 3 3 2 2 2 1 1 2 1 1 2 2 2 2 2 3 3 3 3 3 3
6 7 5 4 4 3 4 6 1 1 1 2 2 2 2 3 4 5 5 5 5 5 5 5 4 4 4 3 3 2 2 2 1 2 2 2 2 2 2 2 2 2 2 2 2 3 3 3 3
6 6 5 7 5 6 4 3 3 3 3 2 2 2 3 3 3 4 5 5 5 5 4 4 4 4 4 4 3 2 2 2 2 2 2 2 2 2 2 3 2 2 2 2 2 2 3 3 3
4 4 5 6 6 7 5 5 3 4 3 3 3 3 2 3 3 3 4 4 4 4 4 4 4 4 4 3 3 2 2 2 2 2 2 3 2 2 3 3 3 2 3 3 2 2 2 3 3
6 6 6 6 6 6 5 2 0 2 2 3 3 2 2 2 3 3 3 3 3 3 3 3 4 4 3 3 3 3 3 2 3 2 2 3 3 3 3 3 3 3 3 3 3 3 3 3 3
6 6 8 7 6 7 7 3 3 1 1 2 3 2 2 2 2 3 3 3 3 3 3 3 3 3 3 3 3 3 3 3 3 3 3 3 3 3 3 3 3 3 3 3 4 3 3 3 3
Wind_Direction
163 167 205 232 210 105 76 72 73 86 74 62 58 58 61 45 30 58 60 37 40 48 49 60 49 52 62 66 70 68 68 67 67 70 70 68 66 69 72 69 69 70 69 66 63 62 59 58 58
158 181 226 242 216 107 87 81 81 72 89 95 78 70 72 67 56 76 80 58 56 59 53 54 51 52 60 65 67 69 70 68 66 68 68 68 67 68 69 67 68 69 69 65 62 60 59 59 59
160 231 263 215 66 72 95 92 94 94 94 86 84 62 54 66 69 77 75 84 74 65 57 62 49 57 62 64 66 68 69 68 68 68 67 68 67 69 71 70 68 67 68 66 62 59 60 61 60
200 207 206 99 86 70 82 100 110 114 97 75 91 90 81 61 64 83 95 92 80 73 63 66 54 60 63 63 64 66 66 66 66 67 69 70 69 69 71 70 69 66 65 64 61 58 60 62 61
232 231 128 103 91 87 86 94 110 101 95 87 87 95 92 78 81 96 105 93 81 75 66 71 61 60 64 64 64 64 64 65 63 65 68 70 71 71 71 69 66 65 65 64 61 60 61 62 62
209 208 128 108 103 103 104 111 112 97 102 107 102 102 94 101 103 102 102 94 82 77 70 79 82 65 64 64 65 64 63 61 60 64 68 68 68 69 68 66 63 63 65 66 65 64 65 65 63
139 106 103 110 118 116 108 115 111 104 102 91 95 103 112 118 110 115 111 100 90 83 76 75 85 94 88 73 64 63 62 60 59 61 65 67 68 66 63 63 62 64 66 67 68 67 65 65 64
337 140 120 116 122 108 112 111 90 92 90 88 71 95 112 124 128 128 123 109 97 90 82 74 75 68 76 90 78 68 65 62 60 60 61 69 86 83 72 71 65 67 67 68 69 69 68 67 64
237 151 114 112 120 112 125 122 103 91 102 101 79 65 86 123 139 137 129 122 105 91 85 77 74 76 72 71 86 91 89 77 86 86 77 72 63 63 71 60 69 72 70 69 70 70 71 78 77
138 100 89 88 103 113 124 119 125 133 119 115 111 99 111 133 142 137 128 120 107 92 81 73 72 76 75 72 79 67 70 69 54 60 65 51 48 54 56 86 76 78 81 82 74 80 96 74 78
78 85 99 104 109 120 123 112 115 132 112 101 116 127 135 140 139 130 114 92 74 78 71 66 65 75 72 84 63 59 64 67 54 46 62 53 46 60 59 66 94 90 82 74 91 92 62 64 60
103 92 95 100 109 124 126 122 116 99 75 74 100 123 134 139 132 124 106 86 80 75 65 55 53 84 79 73 68 40 48 48 45 35 42 46 39 34 52 52 55 53 58 57 55 56 68 66 69
116 106 103 104 113 120 122 117 105 89 83 96 108 119 127 129 125 118 102 97 79 79 83 72 62 62 71 73 61 48 49 33 48 39 24 47 37 38 60 70 69 59 54 61 57 62 67 64 61
112 115 110 116 126 130 126 116 132 110 128 126 125 130 136 131 128 111 93 84 63 65 72 83 100 82 51 69 71 52 48 51 26 34 18 39 38 30 49 64 65 62 56 51 59 66 66 68 66
136 135 126 126 152 151 160 132 135 137 149 142 142 138 134 131 131 124 98 59 40 62 68 76 65 62 61 59 59 52 42 46 36 26 6 27 30 28 63 53 74 73 76 77 67 78 76 81 85
169 177 157 132 169 168 209 141 111 146 167 161 161 152 156 150 157 150 115 97 67 69 75 91 101 101 82 67 67 66 58 45 36 24 12 16 20 25 58 63 76 82 80 78 85 80 86 86 80
184 179 164 142 160 181 208 180 126 160 184 183 184 182 182 174 177 172 173 159 105 93 88 112 119 112 97 86 74 51 61 53 38 24 18 8 21 24 57 55 63 94 98 89 98 94 69 83 78
173 179 180 161 137 186 198 207 186 180 201 205 198 198 199 196 191 182 179 177 152 130 112 116 116 114 110 110 89 74 56 53 43 27 23 17 18 30 50 70 70 78 102 100 145 128 109 80 80
192 208 202 168 151 213 218 228 236 205 209 218 211 207 205 206 196 178 176 177 175 153 150 135 142 127 127 116 123 70 48 32 48 32 30 31 22 23 47 32 54 346 191 264 225 152 131 129 139
212 217 211 167 150 235 243 251 247 224 221 228 227 216 210 209 201 185 182 182 190 174 179 160 176 163 148 117 304 325 350 332 14 11 13 9 10 6 6 311 187 187 194 208 215 198 231 164 242
216 231 235 237 193 215 247 235 207 190 209 222 233 233 225 215 213 194 188 195 192 190 183 176 182 170 153 146 139 95 84 287 254 275 360 345 344 0 310 308 277 240 218 199 225 214 225 230 223
224 230 239 229 233 230 244 268 202 191 207 208 215 216 220 215 216 204 192 193 193 194 180 185 177 178 162 163 177 204 254 276 290 302 310 294 325 322 310 290 268 250 246 228 228 224 233 232 229
254 214 224 235 248 253 233 262 211 190 211 201 201 207 212 211 212 204 197 195 194 187 179 181 177 177 175 187 196 232 249 274 279 290 301 288 297 295 289 278 255 240 238 241 247 233 238 236 250
179 185 192 219 242 248 242 258 246 191 215 217 199 197 203 206 203 202 193 188 188 181 182 185 187 186 192 204 214 225 233 246 272 276 273 270 262 266 260 265 261 250 240 238 240 232 222 240 249
213 226 224 218 222 237 183 254 261 111 211 258 248 215 199 196 193 188 186 184 187 187 189 192 193 196 198 210 219 228 235 246 247 270 257 274 270 254 259 262 263 260 250 249 233 224 231 226 231
212 239 254 264 262 254 213 250 252 113 245 263 251 209 183 181 182 184 186 186 188 190 192 199 198 204 205 213 224 235 234 258 278 283 293 286 285 276 269 256 263 264 254 245 227 234 234 238 234
213 224 267 276 276 267 234 231 220 188 202 194 186 172 175 174 180 185 185 187 192 195 197 204 203 206 207 211 219 226 231 239 269 281 288 285 285 288 265 252 243 239 233 233 228 232 230 235 241
271 222 221 244 261 261 249 244 237 186 198 199 206 200 183 179 179 182 186 189 191 194 201 203 208 210 214 217 214 218 230 241 265 267 272 274 277 281 272 254 247 231 216 212 220 239 241 233 226
190 206 230 243 257 269 271 252 82 228 222 234 230 220 206 199 194 181 179 181 187 189 188 196 206 214 216 220 224 221 226 227 236 247 260 267 271 269 270 256 246 236 229 217 212 225 223 234 231
249 237 233 245 241 250 271 272 98 230 253 260 259 237 213 204 196 183 176 175 182 189 192 201 210 215 217 224 229 232 228 227 237 243 249 251 254 262 265 258 246 237 235 231 227 226 225 234 237